Flag for U.S.A. Weather past 2 weeks in Springfield, Massachusetts, U.S.A.

Now
41 °F

Clear.


Feels Like: 38 °F
Forecast: 28 / 55 °F
Wind: 5 mph from East

Location: Barnes Municipal Airport


UV Index: 0 (Low)

Visibility: 10 mi


Pressure: 30.68 "Hg

Humidity: 45%

Dew point: 21 °F

Location of SpringfieldLocation

Historic Weather in Springfield

°F

Springfield temperature yesterday

Maximum temperature yesterday: 45 °F (at 4:53 PM)
Minimum temperature yesterday: 30 °F (at 6:58 AM)
Average temperature yesterday: 36 °F

Past Weeks' High & Low Weather Summary

 TemperatureHumidityPressure
High76 °F (Apr 14, 1:53 PM)97% (Apr 8, 2:53 AM)30.79 "Hg (Apr 8, 2:53 AM)
Low26 °F (Apr 10, 5:53 AM)17% (Apr 6, 2:53 PM)29.30 "Hg (Apr 8, 2:53 PM)
Average48 °F58%30.01 "Hg
* Reported Apr 2 8:53 PM — Apr 17 8:53 PM, Springfield, Weather by CustomWeather, © 2014

Note: Actual official high and low records may vary slightly from our data, if they occured in-between our weather recording intervals... More about our weather records

Advertising

Historic Weather Conditions — Data for Previous 24 hours

 ConditionsComfort  
Time TempWeatherWind HumidityBarometerVisibility
8:53 PM
Apr 17
41 °FClear.5 mph45%30.68 "Hg10 mi
7:53 PM43 °FSunny.8 mph42%30.68 "Hg10 mi
6:53 PM47 °FSunny.6 mph36%30.66 "Hg10 mi
5:53 PM50 °FSunny.9 mph30%30.66 "Hg10 mi
4:53 PM50 °FSunny.7 mph29%30.67 "Hg10 mi
3:53 PM49 °FSunny.N/A29%30.68 "Hg10 mi
2:53 PM48 °FSunny.6 mph32%30.70 "Hg10 mi
1:53 PM47 °FSunny.7 mph32%30.72 "Hg10 mi
12:53 PM45 °FSunny.9 mph34%30.74 "Hg10 mi
11:53 AM42 °FSunny.15 mph38%30.77 "Hg10 mi
10:53 AM41 °FSunny.9 mph41%30.79 "Hg10 mi
9:53 AM37 °FSunny.7 mph46%30.79 "Hg10 mi
8:53 AM34 °FSunny.12 mph52%30.78 "Hg10 mi
7:53 AM32 °FSunny.9 mph61%30.78 "Hg10 mi
6:53 AM28 °FClear.8 mph69%30.76 "Hg10 mi
5:53 AM26 °FClear.8 mph71%30.73 "Hg10 mi
4:53 AM27 °FClear.7 mph72%30.71 "Hg10 mi
3:53 AM28 °FClear.8 mph69%30.69 "Hg10 mi
2:53 AM30 °FClear.5 mph64%30.66 "Hg10 mi
1:53 AM28 °FClear.5 mph72%30.65 "Hg10 mi
12:53 AM29 °FClear.No wind75%30.64 "Hg10 mi
11:53 PM
Apr 16
31 °FClear.No wind61%30.60 "Hg10 mi
10:53 PM32 °FClear.7 mph59%30.58 "Hg10 mi
Weather by CustomWeather, © 2014

See weather overview